| time (UTC) | temp F | wind direction | speed MPH | gust MPH | rain 1hr in | rain 24hr in | rain mn in | humidity % | barometer mb |
| 20260509150421 | 79 | 241 | 2.0 | 2.0 | 0.00 | 0.00 | 0.00 | 64 | 1034.5 |
| 20260509145919 | 78 | 251 | 4.0 | 6.0 | 0.00 | 0.00 | 0.00 | 63 | 1034.5 |
| 20260509145419 | 78 | 323 | 0.0 | 2.0 | 0.00 | 0.00 | 0.00 | 67 | 1034.4 |
| 20260509144915 | 77 | 270 | 2.0 | 2.0 | 0.00 | 0.00 | 0.00 | 69 | 1034.6 |
| 20260509144412 | 77 | 288 | 0.0 | 1.0 | 0.00 | 0.00 | 0.00 | 68 | 1034.7 |
| 20260509143909 | 76 | 259 | 0.0 | 2.0 | 0.00 | 0.00 | 0.00 | 72 | 1034.6 |
| 20260509143407 | 76 | 246 | 1.0 | 2.0 | 0.00 | 0.00 | 0.00 | 73 | 1034.7 |
| 20260509142903 | 76 | 241 | 0.0 | 1.0 | 0.00 | 0.00 | 0.00 | 74 | 1034.7 |
| 20260509142359 | 75 | 245 | 0.0 | 4.0 | 0.00 | 0.00 | 0.00 | 74 | 1034.9 |
| 20260509141855 | 75 | 253 | 1.0 | 4.0 | 0.00 | 0.00 | 0.00 | 75 | 1034.8 |
| 20260509141352 | 74 | 258 | 1.0 | 1.0 | 0.00 | 0.00 | 0.00 | 76 | 1034.7 |
| 20260509140848 | 74 | 299 | 1.0 | 2.0 | 0.00 | 0.00 | 0.00 | 77 | 1034.7 |
| 20260509140345 | 73 | 270 | 0.0 | 3.0 | 0.00 | 0.00 | 0.00 | 78 | 1034.7 |
| 20260509135843 | 73 | 236 | 0.0 | 2.0 | 0.00 | 0.00 | 0.00 | 79 | 1034.7 |
| 20260509135341 | 73 | 241 | 0.0 | 2.0 | 0.00 | 0.00 | 0.00 | 79 | 1034.8 |
| 20260509134838 | 73 | 258 | 2.0 | 2.0 | 0.00 | 0.00 | 0.00 | 79 | 1034.7 |
| 20260509134335 | 72 | 279 | 2.0 | 3.0 | 0.00 | 0.00 | 0.00 | 80 | 1034.8 |
| 20260509133832 | 72 | 240 | 1.0 | 2.0 | 0.00 | 0.00 | 0.00 | 81 | 1034.6 |
| 20260509133328 | 72 | 280 | 1.0 | 2.0 | 0.00 | 0.00 | 0.00 | 81 | 1034.6 |
| 20260509132828 | 71 | 221 | 1.0 | 2.0 | 0.00 | 0.00 | 0.00 | 82 | 1034.4 |
| 20260509132326 | 71 | 253 | 1.0 | 2.0 | 0.00 | 0.00 | 0.00 | 82 | 1034.3 |
| 20260509131822 | 71 | 304 | 2.0 | 3.0 | 0.00 | 0.00 | 0.00 | 82 | 1034.3 |
| 20260509131319 | 71 | 253 | 1.0 | 2.0 | 0.00 | 0.00 | 0.00 | 83 | 1034.2 |
| 20260509130815 | 70 | 265 | 1.0 | 3.0 | 0.00 | 0.00 | 0.00 | 83 | 1034.1 |
| 20260509130311 | 70 | 281 | 1.0 | 1.0 | 0.00 | 0.00 | 0.00 | 84 | 1034.3 |
| 20260509125808 | 70 | 21 | 0.0 | 4.0 | 0.00 | 0.00 | 0.00 | 84 | 1034.3 |
| 20260509125307 | 70 | 274 | 1.0 | 2.0 | 0.00 | 0.00 | 0.00 | 84 | 1034.3 |
| 20260509124801 | 70 | 271 | 2.0 | 2.0 | 0.00 | 0.00 | 0.00 | 84 | 1034.3 |
| 20260509124257 | 70 | 260 | 0.0 | 2.0 | 0.00 | 0.00 | 0.00 | 85 | 1034.4 |
| 20260509123756 | 69 | 269 | 2.0 | 4.0 | 0.00 | 0.00 | 0.00 | 85 | 1034.1 |
| 20260509123253 | 69 | 263 | 1.0 | 3.0 | 0.00 | 0.00 | 0.00 | 86 | 1034.2 |
| 20260509122748 | 69 | 316 | 2.0 | 3.0 | 0.00 | 0.00 | 0.00 | 87 | 1034.2 |
| 20260509122245 | 69 | 269 | 1.0 | 4.0 | 0.00 | 0.00 | 0.00 | 89 | 1034.2 |
| 20260509121742 | 68 | 324 | 1.0 | 2.0 | 0.00 | 0.00 | 0.00 | 90 | 1034.1 |
| 20260509121239 | 68 | 275 | 1.0 | 1.0 | 0.00 | 0.00 | 0.00 | 91 | 1034.0 |
| 20260509120737 | 68 | 248 | 0.0 | 0.0 | 0.00 | 0.00 | 0.00 | 90 | 1033.8 |
| 20260509120235 | 68 | 247 | 0.0 | 0.0 | 0.00 | 0.00 | 0.00 | 89 | 1033.7 |
| 20260509115733 | 69 | 247 | 0.0 | 0.0 | 0.00 | 0.00 | 0.00 | 88 | 1033.9 |
| 20260509115229 | 69 | 250 | 0.0 | 0.0 | 0.00 | 0.00 | 0.00 | 89 | 1033.9 |
| 20260509114728 | 70 | 250 | 0.0 | 0.0 | 0.00 | 0.00 | 0.00 | 88 | 1033.9 |
| 20260509114226 | 70 | 231 | 0.0 | 1.0 | 0.00 | 0.00 | 0.00 | 86 | 1033.9 |
| 20260509113725 | 71 | 218 | 0.0 | 0.0 | 0.00 | 0.00 | 0.00 | 84 | 1033.7 |
| 20260509113221 | 71 | 213 | 0.0 | 0.0 | 0.00 | 0.00 | 0.00 | 84 | 1033.7 |
| 20260509112718 | 71 | 216 | 0.0 | 0.0 | 0.00 | 0.00 | 0.00 | 84 | 1033.6 |
| 20260509112215 | 71 | 216 | 0.0 | 0.0 | 0.00 | 0.00 | 0.00 | 84 | 1033.6 |
| 20260509111712 | 72 | 216 | 0.0 | 1.0 | 0.00 | 0.00 | 0.00 | 84 | 1033.6 |
| 20260509111209 | 72 | 186 | 1.0 | 2.0 | 0.00 | 0.00 | 0.00 | 84 | 1033.5 |
| 20260509110707 | 72 | 225 | 0.0 | 1.0 | 0.00 | 0.00 | 0.00 | 84 | 1033.7 |
| 20260509110203 | 72 | 271 | 1.0 | 1.0 | 0.00 | 0.00 | 0.00 | 84 | 1033.8 |
| 20260509105701 | 72 | 271 | 1.0 | 3.0 | 0.00 | 0.00 | 0.00 | 84 | 1033.8 |
| 20260509105158 | 72 | 264 | 0.0 | 2.0 | 0.00 | 0.00 | 0.00 | 85 | 1033.8 |
| 20260509104655 | 71 | 288 | 1.0 | 1.0 | 0.00 | 0.00 | 0.00 | 86 | 1033.7 |
| 20260509104152 | 71 | 290 | 2.0 | 2.0 | 0.00 | 0.00 | 0.00 | 87 | 1033.6 |
| 20260509103650 | 71 | 253 | 0.0 | 0.0 | 0.00 | 0.00 | 0.00 | 87 | 1033.5 |
| 20260509103148 | 71 | 258 | 1.0 | 2.0 | 0.00 | 0.00 | 0.00 | 87 | 1033.4 |
| 20260509102645 | 71 | 317 | 1.0 | 2.0 | 0.00 | 0.00 | 0.00 | 88 | 1033.6 |
| 20260509102142 | 71 | 304 | 1.0 | 2.0 | 0.00 | 0.00 | 0.00 | 88 | 1033.5 |
| 20260509101638 | 71 | 282 | 2.0 | 3.0 | 0.00 | 0.00 | 0.00 | 89 | 1033.4 |
| 20260509101135 | 71 | 236 | 2.0 | 3.0 | 0.00 | 0.00 | 0.00 | 90 | 1033.5 |
| 20260509100632 | 71 | 273 | 1.0 | 4.0 | 0.00 | 0.00 | 0.00 | 90 | 1033.1 |
| 20260509100130 | 70 | 275 | 2.0 | 6.0 | 0.00 | 0.00 | 0.00 | 91 | 1033.0 |
| 20260509095626 | 70 | 258 | 2.0 | 3.0 | 0.00 | 0.00 | 0.00 | 90 | 1031.6 |
| 20260509095124 | 70 | 202 | 1.0 | 4.0 | 0.00 | 0.00 | 0.00 | 90 | 1031.3 |
| 20260509094619 | 70 | 206 | 2.0 | 8.0 | 0.00 | 0.00 | 0.00 | 90 | 1031.0 |
| 20260509094117 | 70 | 188 | 2.0 | 11.0 | 0.00 | 0.00 | 0.00 | 90 | 1030.9 |
| 20260509093615 | 70 | 155 | 2.0 | 8.0 | 0.00 | 0.00 | 0.00 | 90 | 1031.0 |
| 20260509093112 | 70 | 153 | 4.0 | 7.0 | 0.00 | 0.00 | 0.00 | 90 | 1031.1 |
| 20260509092610 | 70 | 118 | 3.0 | 6.0 | 0.00 | 0.00 | 0.00 | 90 | 1031.0 |
| 20260509092108 | 70 | 137 | 3.0 | 8.0 | 0.00 | 0.00 | 0.00 | 90 | 1030.9 |
| 20260509091606 | 70 | 160 | 4.0 | 6.0 | 0.00 | 0.00 | 0.00 | 90 | 1030.8 |
| 20260509091102 | 70 | 204 | 2.0 | 6.0 | 0.00 | 0.00 | 0.00 | 90 | 1031.1 |
| 20260509090600 | 70 | 169 | 4.0 | 8.0 | 0.00 | 0.00 | 0.00 | 90 | 1031.2 |
| 20260509090057 | 70 | 123 | 2.0 | 6.0 | 0.00 | 0.00 | 0.00 | 90 | 1031.0 |
| 20260509085554 | 70 | 208 | 3.0 | 9.0 | 0.00 | 0.00 | 0.00 | 90 | 1031.0 |
| 20260509085050 | 70 | 179 | 3.0 | 6.0 | 0.00 | 0.00 | 0.00 | 91 | 1031.1 |
| 20260509084547 | 70 | 112 | 6.0 | 7.0 | 0.00 | 0.00 | 0.00 | 91 | 1031.0 |
| 20260509084044 | 70 | 147 | 2.0 | 6.0 | 0.00 | 0.00 | 0.00 | 91 | 1031.3 |
| 20260509083542 | 69 | 119 | 3.0 | 7.0 | 0.00 | 0.00 | 0.00 | 91 | 1031.8 |
| 20260509083038 | 69 | 168 | 2.0 | 6.0 | 0.00 | 0.00 | 0.00 | 91 | 1031.9 |
| 20260509082536 | 69 | 122 | 2.0 | 6.0 | 0.00 | 0.00 | 0.00 | 90 | 1032.1 |
| 20260509082032 | 70 | 145 | 2.0 | 7.0 | 0.00 | 0.00 | 0.00 | 90 | 1032.6 |
| 20260509081530 | 70 | 151 | 3.0 | 4.0 | 0.00 | 0.00 | 0.00 | 90 | 1032.8 |
| 20260509081026 | 70 | 167 | 2.0 | 4.0 | 0.00 | 0.00 | 0.00 | 90 | 1032.9 |
| 20260509080525 | 70 | 163 | 3.0 | 4.0 | 0.00 | 0.00 | 0.00 | 90 | 1033.3 |
| 20260509080022 | 70 | 210 | 2.0 | 3.0 | 0.00 | 0.00 | 0.00 | 90 | 1033.6 |
| 20260509075519 | 70 | 223 | 1.0 | 2.0 | 0.00 | 0.00 | 0.00 | 90 | 1033.8 |
| 20260509075017 | 70 | 233 | 0.0 | 1.0 | 0.00 | 0.00 | 0.00 | 89 | 1034.1 |
| 20260509074514 | 70 | 205 | 1.0 | 1.0 | 0.00 | 0.00 | 0.00 | 89 | 1034.1 |
| 20260509074010 | 70 | 246 | 1.0 | 2.0 | 0.00 | 0.00 | 0.00 | 90 | 1034.3 |
| 20260509073507 | 70 | 267 | 1.0 | 2.0 | 0.00 | 0.00 | 0.00 | 90 | 1034.7 |
| 20260509073003 | 70 | 333 | 0.0 | 1.0 | 0.00 | 0.00 | 0.00 | 90 | 1034.7 |
| 20260509072500 | 70 | 270 | 1.0 | 2.0 | 0.00 | 0.00 | 0.00 | 90 | 1034.9 |
| 20260509071957 | 70 | 280 | 1.0 | 1.0 | 0.00 | 0.00 | 0.00 | 90 | 1035.0 |
| 20260509071453 | 70 | 284 | 1.0 | 3.0 | 0.00 | 0.00 | 0.00 | 90 | 1035.1 |
| 20260509070951 | 70 | 295 | 2.0 | 2.0 | 0.00 | 0.00 | 0.00 | 90 | 1035.2 |
| 20260509070448 | 70 | 269 | 1.0 | 2.0 | 0.00 | 0.00 | 0.00 | 90 | 1035.4 |
| 20260509065943 | 70 | 264 | 0.0 | 2.0 | 0.00 | 0.00 | 0.00 | 91 | 1035.3 |
| 20260509065439 | 70 | 297 | 1.0 | 2.0 | 0.00 | 0.00 | 0.00 | 91 | 1035.4 |
| 20260509064937 | 70 | 304 | 0.0 | 1.0 | 0.00 | 0.00 | 0.00 | 92 | 1035.1 |
| 20260509064435 | 70 | 279 | 1.0 | 1.0 | 0.00 | 0.00 | 0.00 | 92 | 1035.3 |
| 20260509063933 | 69 | 237 | 0.0 | 0.0 | 0.00 | 0.00 | 0.00 | 92 | 1035.1 |
| 20260509063433 | 69 | 239 | 0.0 | 0.0 | 0.00 | 0.00 | 0.00 | 92 | 1034.9 |
| 20260509062930 | 69 | 239 | 0.0 | 0.0 | 0.00 | 0.00 | 0.00 | 92 | 1035.0 |
| 20260509062428 | 69 | 239 | 0.0 | 0.0 | 0.00 | 0.00 | 0.00 | 92 | 1035.0 |
| 20260509061925 | 69 | 239 | 0.0 | 0.0 | 0.00 | 0.00 | 0.00 | 92 | 1035.1 |
| 20260509061422 | 69 | 240 | 0.0 | 0.0 | 0.00 | 0.00 | 0.00 | 92 | 1035.4 |
| 20260509060919 | 69 | 233 | 0.0 | 0.0 | 0.00 | 0.00 | 0.00 | 92 | 1035.1 |
| 20260509060417 | 69 | 233 | 0.0 | 0.0 | 0.00 | 0.00 | 0.00 | 92 | 1035.1 |
| 20260509055911 | 69 | 239 | 0.0 | 0.0 | 0.00 | 0.00 | 0.00 | 92 | 1035.1 |
| 20260509055407 | 69 | 239 | 0.0 | 0.0 | 0.00 | 0.00 | 0.00 | 91 | 1035.1 |
| 20260509054904 | 69 | 240 | 0.0 | 0.0 | 0.00 | 0.00 | 0.00 | 91 | 1035.0 |
| 20260509054401 | 69 | 240 | 0.0 | 0.0 | 0.00 | 0.00 | 0.00 | 91 | 1034.8 |
| 20260509053859 | 69 | 240 | 0.0 | 0.0 | 0.00 | 0.00 | 0.00 | 90 | 1034.9 |
| 20260509053356 | 69 | 224 | 0.0 | 0.0 | 0.00 | 0.00 | 0.00 | 90 | 1034.6 |
| 20260509052854 | 70 | 216 | 0.0 | 0.0 | 0.00 | 0.00 | 0.00 | 90 | 1034.2 |
| 20260509052351 | 69 | 193 | 0.0 | 1.0 | 0.00 | 0.00 | 0.00 | 90 | 1034.1 |
| 20260509051849 | 69 | 224 | 0.0 | 0.0 | 0.00 | 0.00 | 0.00 | 88 | 1034.3 |
| 20260509051347 | 70 | 224 | 0.0 | 0.0 | 0.00 | 0.00 | 0.00 | 88 | 1034.2 |
| 20260509050843 | 70 | 224 | 0.0 | 0.0 | 0.00 | 0.00 | 0.00 | 88 | 1034.0 |
| 20260509050340 | 70 | 224 | 0.0 | 0.0 | 0.00 | 0.00 | 0.00 | 88 | 1034.1 |
| 20260509045837 | 71 | 224 | 0.0 | 0.0 | 0.00 | 0.06 | 0.06 | 88 | 1034.1 |
| 20260509045334 | 71 | 192 | 0.0 | 1.0 | 0.00 | 0.06 | 0.06 | 88 | 1034.0 |
| 20260509044831 | 71 | 221 | 0.0 | 1.0 | 0.00 | 0.06 | 0.06 | 87 | 1034.3 |
| 20260509044329 | 71 | 209 | 0.0 | 1.0 | 0.00 | 0.06 | 0.06 | 88 | 1034.1 |
| 20260509043825 | 71 | 221 | 0.0 | 0.0 | 0.00 | 0.06 | 0.06 | 88 | 1034.1 |
| 20260509043321 | 71 | 211 | 1.0 | 1.0 | 0.00 | 0.06 | 0.06 | 88 | 1034.1 |
| 20260509042817 | 71 | 202 | 0.0 | 1.0 | 0.00 | 0.06 | 0.06 | 87 | 1034.6 |
| 20260509042314 | 71 | 240 | 0.0 | 0.0 | 0.00 | 0.06 | 0.06 | 87 | 1034.6 |
| 20260509041810 | 71 | 240 | 0.0 | 0.0 | 0.00 | 0.06 | 0.06 | 86 | 1034.6 |
| 20260509041308 | 71 | 240 | 0.0 | 0.0 | 0.00 | 0.06 | 0.06 | 86 | 1034.5 |
| 20260509040806 | 72 | 242 | 0.0 | 0.0 | 0.00 | 0.06 | 0.06 | 85 | 1034.5 |
| 20260509040303 | 72 | 242 | 0.0 | 0.0 | 0.00 | 0.06 | 0.06 | 84 | 1034.1 |
| 20260509035800 | 72 | 246 | 0.0 | 0.0 | 0.00 | 0.06 | 0.06 | 84 | 1034.3 |
| 20260509035257 | 73 | 209 | 0.0 | 2.0 | 0.00 | 0.06 | 0.06 | 83 | 1033.9 |
| 20260509034753 | 73 | 157 | 1.0 | 2.0 | 0.00 | 0.06 | 0.06 | 83 | 1033.9 |
| 20260509034251 | 73 | 185 | 1.0 | 1.0 | 0.00 | 0.06 | 0.06 | 82 | 1034.0 |
| 20260509033747 | 73 | 200 | 1.0 | 4.0 | 0.00 | 0.06 | 0.06 | 82 | 1034.0 |
| 20260509033245 | 73 | 232 | 1.0 | 2.0 | 0.00 | 0.06 | 0.06 | 82 | 1033.9 |
| 20260509032741 | 73 | 164 | 1.0 | 2.0 | 0.00 | 0.06 | 0.06 | 82 | 1033.7 |
| 20260509032239 | 73 | 164 | 1.0 | 3.0 | 0.00 | 0.06 | 0.06 | 82 | 1033.6 |
| 20260509031736 | 73 | 185 | 2.0 | 3.0 | 0.00 | 0.06 | 0.06 | 82 | 1033.5 |
| 20260509031234 | 73 | 213 | 0.0 | 1.0 | 0.00 | 0.06 | 0.06 | 81 | 1033.2 |
| 20260509030731 | 73 | 121 | 2.0 | 3.0 | 0.00 | 0.06 | 0.06 | 81 | 1033.8 |
| 20260509030229 | 73 | 188 | 1.0 | 1.0 | 0.00 | 0.06 | 0.06 | 81 | 1033.7 |
| 20260509025725 | 73 | 167 | 1.0 | 1.0 | 0.00 | 0.06 | 0.06 | 81 | 1033.4 |
| 20260509025221 | 73 | 191 | 0.0 | 2.0 | 0.00 | 0.06 | 0.06 | 81 | 1033.3 |
| 20260509024717 | 74 | 207 | 2.0 | 2.0 | 0.00 | 0.06 | 0.06 | 80 | 1032.9 |
| 20260509024212 | 74 | 199 | 2.0 | 3.0 | 0.00 | 0.06 | 0.06 | 80 | 1032.6 |
| 20260509023710 | 74 | 205 | 1.0 | 3.0 | 0.00 | 0.06 | 0.06 | 80 | 1032.8 |
| 20260509023207 | 74 | 170 | 1.0 | 2.0 | 0.00 | 0.06 | 0.06 | 80 | 1033.0 |
| 20260509022703 | 74 | 209 | 1.0 | 2.0 | 0.00 | 0.06 | 0.06 | 80 | 1032.9 |
| 20260509022201 | 73 | 177 | 2.0 | 3.0 | 0.00 | 0.06 | 0.06 | 80 | 1033.0 |
| 20260509021658 | 73 | 154 | 1.0 | 2.0 | 0.00 | 0.06 | 0.06 | 81 | 1033.0 |
| 20260509021155 | 73 | 192 | 1.0 | 1.0 | 0.00 | 0.06 | 0.06 | 82 | 1033.0 |
| 20260509020653 | 72 | 224 | 1.0 | 1.0 | 0.00 | 0.06 | 0.06 | 84 | 1033.2 |
| 20260509020150 | 72 | 228 | 0.0 | 0.0 | 0.00 | 0.06 | 0.06 | 84 | 1032.9 |
| 20260509015648 | 72 | 228 | 0.0 | 0.0 | 0.00 | 0.06 | 0.06 | 84 | 1033.1 |
| 20260509015146 | 72 | 228 | 0.0 | 0.0 | 0.00 | 0.06 | 0.06 | 84 | 1033.1 |
| 20260509014642 | 72 | 219 | 0.0 | 0.0 | 0.00 | 0.06 | 0.06 | 83 | 1033.0 |
| 20260509014139 | 72 | 218 | 0.0 | 0.0 | 0.00 | 0.06 | 0.06 | 83 | 1032.9 |
| 20260509013636 | 72 | 219 | 0.0 | 0.0 | 0.00 | 0.06 | 0.06 | 83 | 1032.9 |
| 20260509013131 | 73 | 208 | 0.0 | 0.0 | 0.00 | 0.06 | 0.06 | 82 | 1033.0 |
| 20260509012628 | 73 | 208 | 0.0 | 0.0 | 0.00 | 0.06 | 0.06 | 82 | 1032.7 |
| 20260509012125 | 73 | 208 | 0.0 | 0.0 | 0.00 | 0.06 | 0.06 | 81 | 1032.7 |
| 20260509011623 | 73 | 208 | 0.0 | 0.0 | 0.00 | 0.06 | 0.06 | 81 | 1032.6 |
| 20260509011120 | 73 | 208 | 0.0 | 0.0 | 0.00 | 0.06 | 0.06 | 80 | 1032.6 |
| 20260509010618 | 74 | 208 | 0.0 | 0.0 | 0.00 | 0.06 | 0.06 | 80 | 1032.4 |
| 20260509010114 | 74 | 235 | 0.0 | 0.0 | 0.00 | 0.06 | 0.06 | 79 | 1032.5 |
| 20260509005612 | 74 | 207 | 1.0 | 2.0 | 0.00 | 0.06 | 0.06 | 79 | 1032.3 |
| 20260509005107 | 74 | 224 | 1.0 | 1.0 | 0.00 | 0.06 | 0.06 | 79 | 1032.3 |
| 20260509004604 | 74 | 177 | 2.0 | 2.0 | 0.00 | 0.06 | 0.06 | 78 | 1032.2 |
| 20260509004101 | 74 | 223 | 0.0 | 0.0 | 0.00 | 0.06 | 0.06 | 78 | 1032.3 |
| 20260509003559 | 74 | 201 | 1.0 | 3.0 | 0.00 | 0.06 | 0.06 | 77 | 1032.2 |
| 20260509003056 | 74 | 218 | 0.0 | 1.0 | 0.00 | 0.06 | 0.06 | 77 | 1032.0 |
| 20260509002554 | 74 | 196 | 1.0 | 1.0 | 0.00 | 0.06 | 0.06 | 77 | 1032.0 |
| 20260509002051 | 74 | 208 | 0.0 | 2.0 | 0.00 | 0.06 | 0.06 | 76 | 1032.1 |
| 20260509001548 | 75 | 199 | 0.0 | 2.0 | 0.00 | 0.06 | 0.06 | 76 | 1032.2 |
| 20260509001044 | 75 | 212 | 0.0 | 1.0 | 0.00 | 0.06 | 0.06 | 76 | 1032.3 |
| 20260509000543 | 75 | 176 | 1.0 | 2.0 | 0.00 | 0.06 | 0.06 | 76 | 1032.4 |
| 20260509000038 | 75 | 189 | 1.0 | 2.0 | 0.00 | 0.06 | 0.06 | 76 | 1032.4 |
| 20260508235536 | 75 | 228 | 0.0 | 1.0 | 0.00 | 0.06 | 0.06 | 77 | 1032.4 |
| 20260508235032 | 75 | 207 | 0.0 | 3.0 | 0.00 | 0.06 | 0.06 | 76 | 1032.5 |
| 20260508234530 | 75 | 172 | 2.0 | 3.0 | 0.00 | 0.06 | 0.06 | 75 | 1032.7 |
| 20260508234027 | 75 | 222 | 1.0 | 3.0 | 0.00 | 0.06 | 0.06 | 76 | 1032.5 |
| 20260508233526 | 75 | 205 | 0.0 | 2.0 | 0.00 | 0.06 | 0.06 | 76 | 1032.3 |
| 20260508233023 | 75 | 219 | 0.0 | 0.0 | 0.00 | 0.06 | 0.06 | 76 | 1032.5 |
| 20260508232520 | 75 | 208 | 0.0 | 0.0 | 0.00 | 0.06 | 0.06 | 76 | 1032.7 |
| 20260508232017 | 75 | 204 | 0.0 | 0.0 | 0.00 | 0.06 | 0.06 | 75 | 1032.6 |
| 20260508231514 | 75 | 202 | 0.0 | 2.0 | 0.00 | 0.06 | 0.06 | 75 | 1032.5 |
| 20260508231011 | 75 | 206 | 0.0 | 2.0 | 0.00 | 0.06 | 0.06 | 75 | 1032.4 |
| 20260508230508 | 75 | 238 | 0.0 | 2.0 | 0.00 | 0.06 | 0.06 | 75 | 1032.4 |
| 20260508230005 | 75 | 210 | 2.0 | 2.0 | 0.00 | 0.06 | 0.06 | 74 | 1032.5 |
| 20260508225502 | 74 | 207 | 1.0 | 2.0 | 0.00 | 0.06 | 0.06 | 75 | 1032.6 |
| 20260508224959 | 74 | 220 | 1.0 | 7.0 | 0.00 | 0.06 | 0.06 | 74 | 1032.5 |
| 20260508224456 | 74 | 204 | 1.0 | 2.0 | 0.00 | 0.06 | 0.06 | 75 | 1032.7 |
| 20260508223953 | 74 | 199 | 2.0 | 3.0 | 0.00 | 0.06 | 0.06 | 75 | 1032.4 |
| 20260508223451 | 74 | 164 | 1.0 | 1.0 | 0.00 | 0.06 | 0.06 | 76 | 1032.5 |
| 20260508222948 | 73 | 162 | 2.0 | 2.0 | 0.00 | 0.06 | 0.06 | 75 | 1032.7 |
| 20260508220321 | 72 | 169 | 1.0 | 2.0 | 0.00 | 0.06 | 0.06 | 78 | 1033.0 |
| 20260508215818 | 72 | 169 | 1.0 | 2.0 | 0.00 | 0.06 | 0.06 | 78 | 1033.0 |
| 20260508215314 | 72 | 169 | 1.0 | 2.0 | 0.00 | 0.06 | 0.06 | 78 | 1033.0 |
| 20260508214811 | 71 | 217 | 0.0 | 2.0 | 0.00 | 0.06 | 0.06 | 79 | 1033.1 |
| 20260508214308 | 71 | 217 | 0.0 | 1.0 | 0.00 | 0.06 | 0.06 | 81 | 1033.1 |
| 20260508213805 | 71 | 144 | 1.0 | 3.0 | 0.00 | 0.06 | 0.06 | 79 | 1033.2 |
| 20260508213302 | 70 | 244 | 1.0 | 2.0 | 0.00 | 0.06 | 0.06 | 81 | 1033.3 |
| 20260508212758 | 70 | 217 | 0.0 | 3.0 | 0.00 | 0.06 | 0.06 | 81 | 1033.4 |
| 20260508212254 | 70 | 184 | 0.0 | 3.0 | 0.00 | 0.06 | 0.06 | 79 | 1033.6 |
| 20260508211750 | 70 | 260 | 1.0 | 1.0 | 0.00 | 0.06 | 0.06 | 82 | 1033.9 |
| 20260508211246 | 69 | 172 | 1.0 | 2.0 | 0.00 | 0.06 | 0.06 | 84 | 1033.9 |
| 20260508210744 | 68 | 174 | 1.0 | 1.0 | 0.00 | 0.06 | 0.06 | 86 | 1033.8 |
| 20260508210241 | 68 | 226 | 0.0 | 0.0 | 0.00 | 0.06 | 0.06 | 88 | 1034.0 |
| 20260508205737 | 68 | 216 | 0.0 | 0.0 | 0.00 | 0.06 | 0.06 | 88 | 1034.3 |
| 20260508205234 | 68 | 268 | 0.0 | 1.0 | 0.19 | 0.06 | 0.06 | 88 | 1034.4 |
| 20260508204730 | 68 | 291 | 2.0 | 3.0 | 0.24 | 0.06 | 0.06 | 87 | 1034.0 |
| 20260508204227 | 68 | 219 | 2.0 | 3.0 | 0.12 | 0.03 | 0.03 | 84 | 1032.6 |
| 20260508203723 | 68 | 170 | 2.0 | 3.0 | 0.12 | 0.02 | 0.02 | 83 | 1033.0 |
| 20260508203219 | 69 | 147 | 2.0 | 4.0 | 0.05 | 0.01 | 0.01 | 81 | 1033.5 |
| 20260508202715 | 69 | 186 | 0.0 | 1.0 | 0.00 | 0.00 | 0.00 | 78 | 1034.2 |
| 20260508202213 | 70 | 158 | 3.0 | 3.0 | 0.00 | 0.00 | 0.00 | 76 | 1034.4 |
| 20260508201709 | 71 | 157 | 2.0 | 3.0 | 0.00 | 0.00 | 0.00 | 73 | 1034.5 |
| 20260508201206 | 71 | 199 | 2.0 | 4.0 | 0.00 | 0.00 | 0.00 | 70 | 1034.9 |
| 20260508200703 | 71 | 215 | 0.0 | 1.0 | 0.00 | 0.00 | 0.00 | 69 | 1035.3 |
| 20260508200159 | 72 | 123 | 2.0 | 3.0 | 0.00 | 0.00 | 0.00 | 68 | 1034.9 |
| 20260508195656 | 72 | 210 | 1.0 | 3.0 | 0.00 | 0.00 | 0.00 | 67 | 1035.3 |
| 20260508195152 | 72 | 195 | 2.0 | 4.0 | 0.00 | 0.00 | 0.00 | 67 | 1035.3 |
| 20260508194649 | 72 | 160 | 2.0 | 3.0 | 0.00 | 0.00 | 0.00 | 66 | 1035.3 |
| 20260508194146 | 72 | 182 | 3.0 | 4.0 | 0.00 | 0.00 | 0.00 | 65 | 1035.3 |
| 20260508193643 | 73 | 178 | 3.0 | 6.0 | 0.00 | 0.00 | 0.00 | 64 | 1035.2 |
| 20260508193139 | 73 | 131 | 2.0 | 4.0 | 0.00 | 0.00 | 0.00 | 65 | 1035.2 |
| 20260508192636 | 74 | 173 | 4.0 | 4.0 | 0.00 | 0.00 | 0.00 | 63 | 1034.9 |
| 20260508192134 | 74 | 180 | 2.0 | 6.0 | 0.00 | 0.00 | 0.00 | 64 | 1034.9 |
| 20260508191630 | 73 | 227 | 3.0 | 4.0 | 0.00 | 0.00 | 0.00 | 63 | 1035.2 |
| 20260508191127 | 74 | 203 | 3.0 | 6.0 | 0.00 | 0.00 | 0.00 | 63 | 1035.4 |
| 20260508190624 | 74 | 189 | 2.0 | 2.0 | 0.00 | 0.00 | 0.00 | 64 | 1035.6 |
| 20260508190120 | 74 | 170 | 1.0 | 4.0 | 0.00 | 0.00 | 0.00 | 63 | 1035.5 |
| 20260508185618 | 74 | 205 | 3.0 | 8.0 | 0.00 | 0.00 | 0.00 | 63 | 1035.5 |
| 20260508185115 | 74 | 216 | 4.0 | 4.0 | 0.00 | 0.00 | 0.00 | 63 | 1035.5 |
| 20260508184612 | 74 | 229 | 2.0 | 7.0 | 0.00 | 0.00 | 0.00 | 63 | 1035.6 |
| 20260508184109 | 74 | 186 | 5.0 | 8.0 | 0.00 | 0.00 | 0.00 | 63 | 1035.7 |
| 20260508183605 | 73 | 168 | 3.0 | 8.0 | 0.00 | 0.00 | 0.00 | 64 | 1035.6 |
| 20260508183101 | 74 | 198 | 3.0 | 6.0 | 0.00 | 0.00 | 0.00 | 65 | 1035.8 |
| 20260508182558 | 74 | 167 | 2.0 | 4.0 | 0.00 | 0.00 | 0.00 | 64 | 1035.9 |
| 20260508182055 | 74 | 150 | 6.0 | 7.0 | 0.00 | 0.00 | 0.00 | 63 | 1035.8 |
| 20260508181555 | 74 | 220 | 2.0 | 7.0 | 0.00 | 0.00 | 0.00 | 63 | 1035.9 |
| 20260508181054 | 75 | 139 | 2.0 | 6.0 | 0.00 | 0.00 | 0.00 | 62 | 1036.1 |
| 20260508180550 | 76 | 191 | 1.0 | 7.0 | 0.00 | 0.00 | 0.00 | 61 | 1036.0 |
| 20260508180046 | 76 | 238 | 0.0 | 2.0 | 0.00 | 0.00 | 0.00 | 63 | 1036.0 |
| 20260508175543 | 75 | 163 | 1.0 | 2.0 | 0.00 | 0.00 | 0.00 | 64 | 1036.1 |
| 20260508175040 | 74 | 196 | 1.0 | 2.0 | 0.00 | 0.00 | 0.00 | 65 | 1036.1 |
| 20260508174538 | 74 | 200 | 1.0 | 6.0 | 0.00 | 0.00 | 0.00 | 62 | 1036.2 |
| 20260508174034 | 73 | 210 | 2.0 | 2.0 | 0.00 | 0.00 | 0.00 | 64 | 1036.3 |
| 20260508173532 | 73 | 162 | 2.0 | 6.0 | 0.00 | 0.00 | 0.00 | 63 | 1036.9 |
| 20260508173027 | 73 | 156 | 3.0 | 4.0 | 0.00 | 0.00 | 0.00 | 64 | 1036.6 |
| 20260508172525 | 73 | 232 | 2.0 | 3.0 | 0.00 | 0.00 | 0.00 | 64 | 1036.7 |
| 20260508172021 | 73 | 198 | 1.0 | 2.0 | 0.00 | 0.00 | 0.00 | 65 | 1036.7 |
| 20260508171518 | 73 | 200 | 0.0 | 1.0 | 0.00 | 0.00 | 0.00 | 66 | 1037.0 |
| 20260508171014 | 72 | 170 | 1.0 | 3.0 | 0.00 | 0.00 | 0.00 | 65 | 1037.2 |
| 20260508170512 | 73 | 179 | 2.0 | 3.0 | 0.00 | 0.00 | 0.00 | 63 | 1037.3 |
| 20260508170009 | 74 | 200 | 0.0 | 4.0 | 0.00 | 0.00 | 0.00 | 63 | 1037.2 |
| 20260508165506 | 74 | 21 | 1.0 | 3.0 | 0.00 | 0.00 | 0.00 | 64 | 1037.2 |
| 20260508165002 | 73 | 199 | 2.0 | 3.0 | 0.00 | 0.00 | 0.00 | 64 | 1037.1 |
| 20260508164459 | 72 | 198 | 1.0 | 1.0 | 0.00 | 0.00 | 0.00 | 65 | 1037.3 |
| 20260508163956 | 72 | 173 | 0.0 | 2.0 | 0.00 | 0.00 | 0.00 | 65 | 1037.4 |
| 20260508163454 | 72 | 207 | 0.0 | 3.0 | 0.00 | 0.00 | 0.00 | 64 | 1037.4 |
| 20260508162949 | 71 | 193 | 1.0 | 3.0 | 0.00 | 0.00 | 0.00 | 65 | 1037.5 |
| 20260508162447 | 70 | 188 | 0.0 | 3.0 | 0.00 | 0.00 | 0.00 | 67 | 1037.5 |
| 20260508161944 | 69 | 235 | 2.0 | 2.0 | 0.00 | 0.00 | 0.00 | 69 | 1037.8 |
| 20260508161441 | 68 | 250 | 3.0 | 4.0 | 0.00 | 0.00 | 0.00 | 68 | 1037.8 |
| 20260508160938 | 68 | 164 | 2.0 | 4.0 | 0.00 | 0.00 | 0.00 | 69 | 1037.8 |
| 20260508160437 | 68 | 239 | 1.0 | 3.0 | 0.00 | 0.00 | 0.00 | 69 | 1038.0 |
| 20260508155932 | 68 | 178 | 1.0 | 6.0 | 0.00 | 0.00 | 0.00 | 69 | 1038.4 |
| 20260508155430 | 68 | 183 | 2.0 | 4.0 | 0.00 | 0.00 | 0.00 | 69 | 1038.3 |
| 20260508154927 | 67 | 186 | 0.0 | 2.0 | 0.00 | 0.00 | 0.00 | 70 | 1038.4 |
| 20260508154424 | 67 | 157 | 3.0 | 4.0 | 0.00 | 0.00 | 0.00 | 69 | 1038.3 |
| 20260508153921 | 67 | 227 | 2.0 | 4.0 | 0.00 | 0.00 | 0.00 | 70 | 1038.3 |
| 20260508153418 | 67 | 204 | 2.0 | 3.0 | 0.00 | 0.00 | 0.00 | 69 | 1038.6 |
| 20260508152914 | 67 | 211 | 1.0 | 3.0 | 0.00 | 0.00 | 0.00 | 69 | 1038.6 |
| 20260508152411 | 67 | 185 | 2.0 | 3.0 | 0.00 | 0.00 | 0.00 | 69 | 1038.5 |
| 20260508151907 | 67 | 166 | 1.0 | 2.0 | 0.00 | 0.00 | 0.00 | 71 | 1038.8 |
| 20260508151404 | 67 | 141 | 2.0 | 4.0 | 0.00 | 0.00 | 0.00 | 70 | 1038.8 |
| 20260508150900 | 67 | 177 | 2.0 | 3.0 | 0.00 | 0.00 | 0.00 | 70 | 1038.7 |